Location: Unspecified
(0.0000°N, 0.0000°E)
Time: 18:46:37
(UTC+00:00)

A-11 Canister half - Pass Details

Date: 21 November 2019
Orbit: 1526 x 1683 km, 47.3° (Epoch: 05 December)

Event Time Altitude Azimuth Distance (km) Brightness Sun altitude
Rises 07:27:57 0° 212° (SSW) 4,894 11.5 23.9°
Reaches altitude 10° 07:31:09 10° 208° (SSW) 3,919 11.2 24.7°
Maximum altitude 07:41:06 61° 129° (SE) 1,860 10.5 27.0°
Drops below altitude 10° 07:51:02 10° 51° (NE) 3,927 11.6 29.3°
Sets 07:54:13 0° 48° (NE) 4,905 11.9 30.0°
